User: anonymous   Login
Location: Unspecified
(0.0000°N, 0.0000°E)
Time: 11:37:26
(UTC+02:00)
Language:

Cosmos 1626 Rocket - Orbit

View from above orbital plane
View from above orbital plane
View from above satellite
View from above satellite

Ground track
Ground track

The orbit data is extracted from the following two-line orbital elements,

1 15495U 85009B   14294.74238671  .00000769  00000-0  90819-4 0  9234
2 15495 082.5273 015.3176 0018788 288.0470 071.8698 14.83317475606225
Epoch (UTC): 21 October 2014 17:49:02
Eccentricity: 0.0018788
inclination: 82.5273°
perigee height: 606 km
apogee height: 632 km
right ascension of ascending node: 15.3176°
argument of perigee: 288.0470°
revolutions per day: 14.83317475
mean anomaly at epoch: 71.8698°
orbit number at epoch: 60622

The dashed part of the orbit path shows where the satellite is in the earth's shadow,  

DLR